#timestamp,LO_Frequency,Hit,StdDev 
1552690815.8,286046996.9,N
1552690835.6,286046997.0,N
1552690855.4,286046995.1,Y
1552690875.3,286046999.4,P
1552690895.1,286046996.9,N
1552690915.9,286047000.3,N
1552690935.7,286047002.6,N
1552690955.5,286047001.5,N
1552690975.4,286047001.9,N
1552690995.2,286047005.1,N
1552691015.1,286047006.0,N
1552691016.0,286047006.0,N
1552691035.8,286047001.4,N
1552691055.6,286047002.2,N
1552691075.5,286047002.1,N
1552691095.3,286047005.8,N
1552691115.2,286047002.9,N
1552691135.3,286047003.4,N
1552691155.2,286047004.1,N
1552691175.0,286047003.3,N
1552691175.9,286047003.3,N
1552691195.8,286047005.4,N
1552691215.6,286047006.7,N
1552691235.4,286047008.1,N
1552691255.2,286047008.5,N
1552691275.0,286047007.6,N
1552691275.9,286047007.6,N
1552691295.8,286047005.3,N
1552691315.6,286047003.4,N
1552691335.5,286047001.3,N
1552691355.3,286047001.5,N
1552691375.1,286047006.8,N
1552691395.9,286047009.3,Y
1552691415.7,286047009.6,P
1552691435.5,286047007.7,N
1552691455.4,286047007.0,N
1552691475.2,286047005.1,N
1552691495.1,286047003.2,N
1552691496.0,286047003.2,N
1552691515.8,286047002.4,N
1552691535.6,286047002.4,N
1552691555.5,286047000.2,N
1552691575.3,286047000.6,N
1552691595.1,286046996.6,N
1552691615.9,286046995.2,N
1552691635.7,286046998.5,N
1552691655.6,286047001.7,N
1552691675.4,286047000.1,N
1552691695.2,286047002.6,N
1552691715.1,286047001.7,N
1552691716.0,286047001.7,N
1552691735.8,286047002.6,N
1552691755.6,286047007.1,N
1552691775.5,286047008.2,N
1552691795.3,286047004.6,N
1552691815.2,286047003.2,N
1552691835.9,286047002.4,N
1552691855.7,286047000.4,N
1552691875.6,286046998.6,N
1552691895.4,286046996.8,N
1552691915.2,286046993.8,N
1552691935.1,286046993.5,N
1552691936.0,286046993.5,N
1552691955.8,286046992.1,N
1552691975.7,286046993.9,N
1552691995.5,286046994.3,N
1552692015.3,286046993.5,N
1552692035.2,286046999.5,N
1552692055.0,286046998.8,N
1552692055.9,286046998.8,N
1552692075.8,286046997.2,N
1552692095.6,286046996.2,N
1552692115.4,286046995.8,N
1552692135.3,286046996.1,N
1552692155.1,286046996.0,N
1552692175.8,286046993.6,N
1552692195.7,286046993.6,N
1552692215.5,286046996.1,N
1552692235.3,286047003.0,N
1552692255.2,286047004.6,N
1552692275.0,286047003.3,N
1552692275.9,286047003.3,N
1552692295.8,286047003.3,N
1552692315.6,286047003.8,N
1552692335.4,286047000.6,N
1552692355.3,286046998.8,N
1552692375.1,286046997.2,N
1552692395.9,286046997.3,N
1552692415.7,286046999.2,N
1552692435.5,286046998.5,N
1552692455.4,286046999.3,N
1552692475.2,286046994.9,N
1552692495.0,286046999.2,N
1552692495.9,286046999.2,N
1552692515.8,286046998.7,N
1552692535.6,286046996.5,N
1552692555.5,286046996.7,N
1552692575.3,286046996.3,N
1552692595.1,286046996.0,N
1552692615.9,286046994.6,N
1552692635.7,286046994.5,N
1552692655.5,286046994.5,N
1552692675.4,286046993.9,N
1552692695.2,286046995.3,N
1552692715.1,286046998.0,N
1552692716.0,286046998.0,N
1552692735.8,286046997.3,N
1552692755.6,286046998.6,N
1552692775.5,286047003.9,N
1552692795.3,286047003.4,N
1552692815.1,286047003.1,N
1552692835.9,286047007.4,N
1552692855.7,286047008.5,N
1552692875.6,286047011.5,Y
1552692895.4,286047015.1,P
1552692915.2,286047012.5,N
1552692935.1,286047011.5,N
1552692936.0,286047011.5,N
1552692955.8,286047013.8,N
1552692975.6,286047017.9,Y
1552692995.5,286047009.5,P
1552693015.3,286047013.6,P
1552693035.2,286047009.8,P
1552693055.9,286047006.2,Y
1552693075.7,286046994.2,P
1552693095.6,286046992.7,N
1552693115.4,286046993.7,N
1552693135.2,286046996.7,N
1552693155.1,286046999.3,N
1552693156.0,286046999.3,N
1552693175.8,286046995.5,N
1552693195.7,286046994.5,N
1552693215.5,286046990.2,N
1552693235.3,286046998.6,N
1552693255.2,286047003.9,N
1552693275.0,286046998.2,N
1552693275.9,286046998.2,N
1552693295.7,286046997.7,N
1552693315.6,286046995.9,N
1552693335.4,286046991.8,N
1552693355.3,286046992.9,N
1552693375.1,286046993.2,N
1552693376.0,286046993.2,N
1552693395.8,286046992.3,N
1552693415.7,286046992.8,N
1552693435.5,286046991.9,N
1552693455.4,286046996.4,N
1552693475.2,286046993.3,N
1552693495.0,286046993.8,N
1552693495.9,286046993.8,N
1552693515.8,286046992.6,N
1552693535.6,286046991.1,N
1552693555.5,286046987.0,Y
1552693575.3,286046992.5,P
1552693595.1,286046996.0,N
1552693615.9,286046997.7,N
1552693635.7,286046996.6,N
1552693655.5,286046998.9,N
1552693675.4,286046997.3,N
1552693695.2,286046994.0,Y
1552693715.1,286046995.7,P
1552693716.0,286046995.7,P
1552693735.8,286046992.1,P
1552693755.7,286046991.5,Y
1552693775.5,286046993.6,P
1552693795.3,286046993.1,P
1552693815.2,286046990.9,P
1552693835.0,286046991.0,Y
1552693835.9,286046991.0,P
1552693855.8,286046995.3,P
1552693875.6,286046995.3,N
1552693895.4,286046994.1,Y
1552693915.3,286046998.3,P
1552693935.1,286046997.1,N
1552693955.8,286046999.2,N
1552693975.7,286046997.0,N
1552693995.5,286046997.9,N
1552694015.4,286046995.0,N
1552694035.2,286046993.5,Y
1552694055.0,286046999.5,P
1552694055.9,286046999.5,N
1552694075.8,286046996.5,N
1552694095.6,286046996.5,N
1552694115.5,286046999.3,N
1552694135.3,286046999.3,N
1552694155.1,286046997.1,N
1552694175.9,286046999.2,N
1552694195.7,286046997.5,N
1552694215.5,286046997.6,N
1552694235.4,286046993.4,Y
1552694255.2,286046996.9,P
1552694275.1,286046999.2,N
1552694276.0,286046999.2,N
1552694295.8,286046996.6,Y
1552694315.6,286046998.5,P
1552694335.5,286046998.1,P
1552694355.3,286046998.7,P
1552694375.1,286047000.2,N
1552694395.9,286046999.9,N
